Location: Mount Cross
(36.6390°N, 79.4878°W)
Time: 01:20:03
(UTC+00:00)

SR - Pass Details

Date: 04 April 2023
Orbit: 580 x 867 km, 66.7° (Epoch: 08 June)

Event Time Altitude Azimuth Distance (km) Brightness Sun altitude
Rises 13:19:47 0° 344° (NNW) 2,831 ? 27.1°
Reaches altitude 10° 13:22:15 10° 357° (N) 1,949 ? 27.5°
Maximum altitude 13:26:00 27° 56° (NE) 1,194 ? 28.3°
Drops below altitude 10° 13:29:56 10° 115° (ESE) 2,053 ? 29.0°
Sets 13:32:36 0° 127° (SE) 3,012 ? 29.6°
